Temperature
12 11 11 11 10 10 10 9 9 9 9 9 9 9 9 9 9 8 8 8 8 8 8 9 9 9 9 9 10 10 10 10 10 11 12 13 14 14 14 15 15 15 16
12 11 11 10 10 10 10 9 9 9 9 9 9 9 9 9 8 8 8 8 8 8 8 8 8 9 9 9 9 9 10 10 10 10 11 12 13 14 14 15 15 15 16
11 11 10 10 10 10 10 9 9 9 9 9 9 9 9 8 8 8 8 8 8 8 8 8 8 8 8 9 9 9 9 10 10 10 11 11 12 13 13 14 14 15 15
11 10 10 10 10 9 9 9 9 9 9 9 8 8 8 8 8 8 8 8 8 8 8 8 8 8 8 8 9 9 9 9 9 10 10 11 11 12 13 13 14 14 14
11 10 10 10 9 9 9 9 9 9 9 8 8 8 8 8 8 8 8 8 8 8 8 8 8 8 8 8 8 8 9 9 9 9 10 10 11 12 12 13 13 13 13
10 10 10 10 9 9 9 9 9 9 8 8 8 8 8 8 8 8 8 8 8 8 8 8 8 8 8 8 8 8 8 8 9 9 10 10 11 11 12 12 12 12 13
10 10 10 9 9 9 9 9 9 8 8 8 8 8 8 8 8 8 8 8 8 8 8 8 8 8 8 8 8 8 8 8 8 9 9 10 10 11 11 12 12 12 13
10 10 10 9 9 9 9 9 8 8 8 8 8 8 8 8 8 8 8 8 8 8 8 7 7 7 7 7 7 7 8 8 8 8 9 9 10 10 11 11 11 12 12
10 10 9 9 9 9 9 9 8 8 8 8 8 8 8 8 8 8 8 7 7 7 7 7 7 7 7 7 7 7 7 8 8 8 9 9 10 10 10 11 11 11 11
10 10 9 9 9 9 8 8 8 8 8 8 8 8 8 8 8 8 7 7 7 7 7 7 7 7 7 7 7 7 7 7 8 8 8 9 9 10 10 10 11 11 11
10 10 10 9 9 9 9 8 8 8 8 8 8 8 8 8 8 8 7 7 7 7 7 7 7 7 7 7 6 6 7 7 7 8 8 9 9 9 10 10 10 11 11
10 10 10 9 9 9 9 8 8 8 8 8 8 8 8 8 7 7 7 7 6 6 6 6 6 6 6 6 6 6 7 6 7 7 8 8 9 9 10 10 10 11 11
10 10 10 9 9 9 9 8 8 8 8 8 8 7 8 7 7 7 7 6 6 6 6 6 6 6 6 6 6 6 6 6 6 7 7 8 9 9 9 10 10 10 10
10 10 10 9 9 9 9 9 8 8 8 8 7 7 7 7 7 7 7 6 6 6 6 6 6 6 6 6 6 6 6 6 7 7 7 8 8 9 9 9 10 10 10
10 10 10 9 9 9 9 9 9 8 8 7 7 7 7 7 7 6 6 6 6 6 6 6 6 6 6 6 6 6 6 6 7 7 7 8 8 8 9 9 9 10 10
11 10 10 10 9 9 9 9 9 9 8 8 7 7 7 7 7 7 6 6 6 6 6 6 6 6 6 6 6 6 6 7 7 7 7 7 8 8 9 9 9 9 9
11 10 10 9 9 9 9 9 9 9 9 8 8 8 7 7 7 7 7 6 6 6 6 6 6 6 6 6 6 6 7 7 7 7 7 7 8 8 8 9 9 9 9
11 10 10 9 9 9 9 9 9 8 8 8 8 8 7 7 7 7 7 6 6 6 6 6 6 6 6 6 6 6 7 7 7 7 7 7 8 8 8 9 9 9 9
11 10 10 9 9 9 9 9 9 9 8 8 8 8 8 7 7 7 7 6 6 6 6 6 6 6 6 6 6 6 7 7 7 7 7 8 8 8 8 9 9 9 9
11 10 9 9 9 9 9 9 9 9 8 8 8 8 8 8 7 7 7 7 7 7 7 7 6 7 7 7 7 7 7 7 7 7 8 8 8 8 8 9 9 9 9
11 10 10 9 9 9 9 9 9 9 8 8 8 8 8 7 7 7 7 7 7 7 7 7 7 7 7 7 7 7 7 8 8 8 8 8 8 8 8 9 9 9 9
10 10 10 9 9 9 9 9 9 9 9 8 8 8 8 8 7 7 7 7 7 7 7 7 7 7 7 7 7 8 8 8 8 8 8 8 8 8 9 9 9 9 9
10 10 9 9 9 9 9 9 9 9 9 8 8 8 8 8 8 7 7 7 7 7 7 7 7 7 8 8 8 8 8 8 8 8 8 8 8 8 9 9 9 9 9
10 10 9 9 9 9 9 9 9 9 9 8 8 8 8 8 8 8 7 7 7 7 7 7 7 7 8 8 8 8 8 8 8 8 8 8 8 9 9 9 9 9 9
10 9 9 9 9 9 9 9 9 9 9 9 8 8 8 8 8 8 7 7 7 7 7 7 7 8 8 8 8 8 8 8 8 8 8 9 9 9 9 9 9 9 9
9 9 9 8 8 8 8 8 8 8 8 8 8 8 8 8 8 7 7 7 7 7 7 7 7 7 7 7 8 8 8 8 8 8 8 9 9 9 9 9 9 9 9
Wind_Speed
6 5 6 6 6 6 6 8 8 8 8 8 9 8 8 9 8 7 8 8 8 8 7 7 8 7 6 5 5 5 6 5 8 6 4 4 4 3 2 2 3 4 7
6 5 6 6 6 7 8 8 8 8 8 9 9 9 10 9 8 8 9 9 9 10 9 9 9 7 8 6 6 7 6 6 6 8 5 4 3 2 2 2 1 2 3
5 6 6 7 7 8 8 9 8 8 9 9 8 9 10 10 10 10 10 10 10 10 10 10 10 9 9 7 7 7 6 7 6 6 6 4 3 2 1 2 3 3 3
5 6 7 8 8 8 9 9 9 9 9 10 10 10 10 11 11 11 10 11 10 10 10 10 10 10 10 10 8 8 8 7 7 7 6 4 4 2 3 3 3 3 3
5 6 8 8 8 8 9 9 9 9 10 10 10 10 10 10 10 11 11 11 11 11 11 10 11 13 14 11 9 8 8 7 7 7 7 5 5 4 4 4 5 5 3
6 8 8 7 8 8 9 9 9 10 10 10 10 11 11 10 12 14 13 11 11 11 12 11 11 13 15 16 17 15 12 10 9 8 7 7 7 5 3 5 6 6 4
7 8 8 8 8 9 9 9 10 10 10 10 11 11 12 13 15 16 17 12 12 12 12 11 11 11 12 11 13 15 15 16 14 10 9 9 8 6 6 7 8 7 5
7 8 8 8 9 9 9 10 10 9 10 10 11 11 11 13 15 15 15 12 11 12 12 12 12 12 12 11 11 11 11 12 12 11 10 10 9 7 6 6 6 5 5
8 9 8 8 9 9 10 11 10 9 10 10 10 11 12 13 14 14 12 8 8 11 11 11 12 13 14 14 12 12 12 11 11 12 12 11 11 10 7 6 7 9 6
9 8 8 8 8 10 11 11 10 9 10 11 11 11 11 12 13 14 11 6 8 9 9 10 13 14 14 14 13 12 12 11 9 8 9 10 10 10 12 10 9 9 7
8 7 8 8 8 10 10 9 10 10 10 10 11 11 10 11 12 13 11 6 7 8 8 8 8 12 14 15 14 12 13 11 9 9 8 8 7 7 9 9 9 9 9
7 7 8 8 8 8 9 10 9 9 9 10 10 10 8 8 9 10 11 9 8 8 8 7 8 10 12 13 11 12 13 11 7 7 7 7 7 8 8 9 9 8 5
6 8 8 9 8 8 8 9 9 8 7 8 8 9 9 7 7 10 10 10 9 7 7 9 10 10 9 9 12 13 11 9 8 8 9 9 8 8 7 7 8 6 5
7 8 8 8 9 9 7 7 7 8 8 8 8 8 9 8 7 5 5 5 6 5 5 7 8 8 7 6 6 8 8 9 9 9 9 8 6 7 8 7 7 8 6
7 8 8 8 8 9 9 7 8 8 9 9 8 8 9 9 8 7 6 4 4 4 4 3 3 3 4 4 4 5 7 8 9 8 8 7 7 7 7 7 8 8 7
7 7 6 7 7 7 8 9 10 10 13 13 12 10 9 11 12 10 9 8 8 6 3 3 4 4 5 5 5 5 6 7 7 8 7 7 7 7 7 7 8 8 9
7 7 6 7 7 7 7 8 10 11 10 10 10 10 10 10 10 9 8 7 7 5 4 5 5 5 5 5 5 5 6 6 6 7 7 7 7 7 7 7 8 9 9
7 7 7 7 7 7 8 8 7 8 9 8 8 9 10 9 9 7 6 4 3 3 4 5 6 5 5 5 5 5 5 5 6 7 7 7 7 7 7 8 9 10 10
6 5 6 6 7 7 7 7 7 7 7 8 8 7 6 6 6 6 4 3 4 5 5 5 6 5 5 5 5 5 5 6 6 7 7 8 7 7 7 8 8 11 11
5 8 8 6 6 6 6 6 7 7 7 7 7 6 5 3 3 4 3 4 5 6 6 5 5 5 5 5 5 5 6 6 7 7 7 7 7 7 8 9 9 10 10
5 6 8 7 5 6 6 6 6 7 7 7 7 6 7 4 5 6 5 5 5 6 6 5 5 5 5 4 4 5 6 6 6 7 7 7 8 7 8 8 9 9 10
4 4 4 5 6 6 6 6 6 6 6 7 6 6 7 4 4 5 5 5 5 5 5 5 5 5 5 4 4 5 5 5 6 6 6 6 7 7 8 8 9 9 10
4 4 5 5 5 6 6 5 5 5 6 6 6 6 5 5 5 5 5 5 5 5 4 4 4 4 4 4 4 4 5 5 6 6 6 6 7 7 8 9 10 11 12
4 4 4 5 4 4 5 5 5 5 5 5 5 5 5 6 6 6 6 5 5 5 4 3 3 4 4 2 2 3 3 4 5 6 8 8 8 7 8 9 10 12 12
4 3 4 4 4 4 4 5 5 5 5 5 5 5 6 6 6 6 6 6 6 5 5 3 2 2 2 1 0 1 2 3 4 4 6 7 8 9 9 10 9 11 11
4 3 3 3 3 3 3 4 4 5 5 5 5 5 5 6 6 6 6 6 6 5 4 3 4 3 2 1 1 1 1 2 4 4 5 6 8 9 10 9 11 11 12
Wind_Direction
270 271 275 276 276 277 274 273 274 276 278 278 278 279 278 276 270 261 258 257 255 258 256 250 252 251 249 247 243 242 242 242 263 279 274 289 287 277 265 217 205 201 201
270 274 275 277 283 284 281 280 279 278 279 277 277 277 277 276 270 264 266 264 255 256 256 251 254 254 248 245 241 241 242 239 248 272 285 286 282 265 233 180 151 147 155
276 277 281 283 282 281 281 283 284 281 282 282 277 274 275 274 273 268 263 263 258 255 253 249 250 249 251 247 241 241 243 245 239 254 271 274 275 247 206 162 137 127 116
276 276 278 279 278 280 283 284 283 281 281 281 279 275 273 273 273 271 268 265 262 257 252 248 246 243 245 246 243 240 241 243 243 246 257 263 260 240 198 178 160 145 129
276 276 274 279 281 282 283 284 284 282 281 277 279 278 275 274 269 265 264 265 262 262 258 251 247 244 242 240 238 235 232 235 238 239 245 251 246 220 207 182 166 143 121
271 274 279 284 285 285 285 286 288 287 285 282 279 277 277 274 269 268 268 268 265 263 262 257 252 253 252 248 243 237 227 227 230 232 233 238 241 224 208 185 162 159 157
271 276 281 281 284 286 290 292 290 289 286 285 283 278 276 274 270 271 271 269 264 262 259 257 258 254 246 242 243 242 238 233 226 227 232 232 233 221 201 194 186 174 160
273 277 279 279 283 288 291 290 289 288 286 285 284 282 279 278 273 270 271 270 264 260 257 253 253 255 250 239 238 240 240 239 234 233 235 234 230 219 208 198 181 150 120
274 277 279 279 285 290 291 290 289 289 289 287 285 283 281 281 277 273 272 269 264 264 261 255 251 252 246 234 234 237 241 242 242 235 228 231 224 212 200 180 173 168 160
272 276 279 279 281 285 286 287 286 285 286 290 288 284 279 279 278 275 272 262 265 268 266 260 252 249 244 230 230 230 235 238 235 233 226 229 228 216 202 196 187 183 163
271 277 280 279 279 280 281 283 287 289 290 291 289 287 282 276 277 276 272 257 257 265 266 264 258 247 242 233 226 229 230 226 226 225 225 224 222 215 208 205 197 192 178
273 278 281 284 285 288 286 290 290 290 293 295 295 296 291 282 274 277 273 263 255 257 260 262 262 256 246 237 230 228 222 216 221 218 220 220 218 215 210 203 199 199 189
275 280 285 291 291 288 288 293 298 295 291 294 294 296 299 296 284 274 273 275 272 257 259 262 264 264 258 244 234 225 216 214 212 213 217 217 215 213 201 195 188 178 153
272 282 289 294 299 300 295 289 290 293 295 295 295 296 299 299 293 289 287 286 281 270 272 273 269 266 258 248 234 222 217 211 208 214 214 212 206 204 201 190 182 168 154
269 280 289 291 293 301 301 291 285 279 273 279 288 287 292 295 290 286 287 285 281 278 288 283 272 259 251 243 230 218 211 205 208 212 209 205 201 202 200 189 178 171 170
266 279 287 295 299 301 305 309 292 279 283 276 263 264 273 267 277 289 287 282 281 274 264 260 262 256 247 241 230 220 210 206 204 203 205 205 200 196 195 187 181 178 173
253 272 285 292 297 302 304 306 313 316 308 296 287 285 276 279 282 284 288 289 281 259 247 259 261 259 252 242 233 224 220 209 199 200 202 201 198 192 189 189 185 181 176
254 270 279 284 291 295 297 298 298 305 314 317 311 301 298 291 287 285 286 291 278 246 246 259 264 261 253 244 233 227 222 211 201 200 202 200 194 191 188 187 186 180 173
254 268 277 283 288 291 293 296 298 301 302 306 313 314 309 301 291 277 251 247 267 272 264 261 263 259 253 246 237 226 217 211 207 201 202 198 193 190 192 189 185 176 170
253 270 282 286 293 299 301 304 307 309 310 311 312 314 321 316 308 297 264 256 261 266 267 266 267 262 254 241 232 223 213 209 205 204 201 197 193 192 193 190 183 177 176
252 274 289 292 289 293 298 302 305 306 307 309 306 304 304 296 294 294 291 280 270 268 267 265 265 263 256 245 231 219 209 205 201 198 195 191 189 192 192 187 183 177 172
241 263 279 286 291 296 300 300 302 305 310 311 313 317 318 308 303 301 296 293 284 274 268 263 264 260 251 243 229 214 208 206 199 193 190 187 184 187 185 182 180 176 171
232 257 277 283 288 298 305 309 312 314 315 316 316 321 326 321 316 313 309 306 300 291 280 267 265 268 259 245 231 218 210 206 201 193 186 183 184 184 181 179 179 175 173
226 248 268 282 293 302 309 313 316 319 321 323 324 324 324 322 321 319 317 314 310 305 298 290 278 273 269 250 229 222 216 209 198 197 195 189 184 179 178 178 180 180 175
219 239 257 272 287 299 308 315 322 325 326 328 331 332 328 327 329 330 329 330 329 329 332 332 325 316 311 283 185 200 186 193 198 195 190 187 183 179 177 177 178 174 171
214 230 248 269 284 298 308 317 324 329 331 334 333 334 333 334 338 340 340 344 346 346 349 354 4 11 16 27 44 58 92 171 193 195 188 181 179 180 178 178 177 174 171
Height
1505 1503 1501 1499 1497 1495 1492 1490 1487 1485 1482 1480 1478 1477 1475 1473 1472 1470 1469 1468 1467 1467 1467 1466 1466 1467 1467 1468 1468 1468 1469 1469 1467 1465 1466 1467 1468 1470 1471 1473 1476 1480 1483
1502 1500 1498 1495 1493 1490 1488 1485 1482 1480 1478 1475 1473 1471 1469 1468 1466 1465 1463 1462 1461 1461 1460 1460 1460 1461 1461 1462 1462 1462 1463 1463 1463 1462 1462 1463 1464 1466 1467 1469 1472 1475 1479
1498 1496 1494 1491 1489 1486 1483 1481 1478 1475 1472 1470 1468 1466 1464 1462 1460 1459 1457 1456 1455 1454 1454 1453 1454 1454 1454 1455 1456 1456 1457 1458 1458 1458 1458 1459 1460 1462 1463 1465 1468 1471 1475
1494 1492 1489 1487 1484 1481 1479 1476 1473 1470 1467 1465 1463 1460 1458 1456 1454 1453 1451 1449 1448 1448 1447 1447 1447 1447 1448 1449 1449 1450 1451 1452 1453 1453 1454 1455 1456 1458 1460 1461 1464 1468 1471
1490 1488 1485 1482 1480 1477 1474 1471 1468 1465 1462 1459 1457 1454 1452 1450 1448 1446 1444 1443 1441 1440 1440 1440 1440 1440 1440 1442 1443 1444 1445 1446 1447 1448 1449 1450 1452 1454 1456 1458 1461 1464 1468
1486 1484 1481 1478 1475 1472 1469 1466 1463 1459 1456 1453 1451 1448 1445 1443 1441 1440 1438 1436 1434 1433 1432 1432 1433 1433 1434 1435 1436 1437 1439 1440 1441 1443 1444 1445 1447 1449 1452 1454 1457 1461 1464
1482 1480 1477 1474 1471 1468 1464 1461 1457 1453 1450 1447 1444 1442 1439 1437 1435 1433 1431 1429 1427 1426 1425 1425 1425 1425 1426 1427 1428 1429 1431 1433 1435 1437 1438 1440 1442 1444 1447 1449 1452 1456 1460
1478 1476 1473 1470 1466 1463 1459 1456 1452 1448 1445 1441 1438 1435 1432 1430 1428 1426 1425 1422 1420 1419 1418 1418 1417 1417 1418 1419 1420 1421 1423 1426 1428 1430 1432 1435 1438 1440 1442 1445 1448 1452 1456
1474 1472 1469 1465 1462 1458 1454 1451 1447 1443 1439 1436 1432 1429 1426 1424 1422 1420 1418 1415 1413 1412 1411 1410 1410 1409 1410 1412 1413 1413 1415 1418 1421 1424 1426 1429 1432 1435 1437 1441 1443 1447 1451
1470 1467 1464 1461 1457 1453 1450 1446 1442 1438 1434 1430 1427 1424 1421 1418 1416 1414 1412 1409 1407 1405 1404 1403 1402 1402 1403 1404 1405 1406 1407 1410 1414 1417 1420 1423 1425 1429 1432 1435 1438 1442 1446
1466 1463 1459 1456 1452 1449 1445 1441 1437 1433 1429 1426 1422 1419 1416 1413 1410 1408 1406 1403 1401 1398 1397 1396 1396 1396 1396 1397 1398 1399 1401 1404 1407 1410 1413 1416 1419 1422 1426 1429 1433 1437 1441
1461 1458 1455 1452 1448 1444 1440 1437 1433 1429 1425 1420 1416 1413 1410 1407 1405 1402 1400 1397 1395 1393 1391 1390 1390 1390 1390 1390 1391 1393 1395 1398 1401 1403 1406 1409 1412 1416 1420 1424 1428 1432 1436
1457 1454 1451 1447 1444 1440 1436 1432 1428 1424 1420 1416 1412 1408 1404 1402 1399 1396 1394 1392 1390 1388 1387 1386 1385 1385 1384 1385 1386 1387 1390 1392 1394 1397 1400 1403 1407 1411 1415 1419 1423 1427 1431
1453 1450 1446 1443 1439 1436 1433 1429 1424 1420 1416 1411 1407 1403 1399 1396 1393 1391 1389 1387 1385 1384 1382 1381 1380 1380 1380 1380 1380 1381 1383 1386 1389 1392 1395 1399 1403 1406 1410 1413 1417 1421 1426
1448 1445 1442 1438 1435 1432 1428 1425 1420 1416 1412 1407 1403 1399 1395 1391 1389 1387 1385 1383 1381 1380 1379 1377 1376 1376 1375 1375 1376 1377 1379 1381 1384 1387 1391 1394 1397 1401 1404 1408 1412 1417 1421
1444 1441 1438 1434 1431 1428 1424 1421 1417 1413 1409 1404 1400 1396 1392 1389 1385 1383 1381 1380 1378 1377 1375 1374 1373 1372 1372 1372 1372 1373 1375 1377 1380 1383 1386 1389 1393 1396 1400 1404 1408 1412 1417
1439 1437 1433 1430 1427 1424 1420 1416 1412 1409 1405 1401 1397 1393 1389 1386 1383 1381 1379 1377 1375 1373 1372 1371 1370 1369 1369 1368 1369 1370 1372 1374 1376 1379 1382 1386 1389 1393 1396 1400 1403 1408 1413
1436 1433 1430 1427 1424 1421 1417 1414 1409 1405 1400 1397 1393 1390 1386 1383 1380 1378 1376 1374 1372 1371 1369 1368 1367 1367 1366 1365 1366 1367 1369 1371 1373 1376 1379 1382 1386 1389 1393 1396 1399 1404 1409
1431 1429 1426 1423 1420 1417 1414 1411 1407 1403 1398 1394 1390 1387 1384 1381 1378 1376 1374 1371 1369 1368 1367 1365 1364 1364 1363 1363 1364 1365 1366 1368 1370 1373 1376 1379 1382 1386 1389 1392 1396 1400 1405
1427 1425 1422 1419 1417 1414 1411 1408 1404 1400 1396 1392 1388 1385 1382 1379 1376 1374 1372 1369 1367 1365 1364 1363 1362 1361 1361 1361 1361 1362 1364 1366 1368 1370 1373 1376 1379 1382 1386 1389 1392 1396 1401
1423 1421 1418 1416 1413 1410 1408 1404 1401 1398 1394 1391 1387 1384 1381 1377 1374 1372 1369 1367 1365 1363 1362 1361 1360 1359 1359 1359 1359 1360 1362 1363 1366 1368 1370 1373 1376 1379 1382 1386 1389 1394 1398
1418 1416 1414 1412 1409 1407 1404 1402 1399 1396 1392 1389 1386 1383 1379 1376 1373 1370 1367 1365 1363 1361 1360 1358 1357 1357 1357 1357 1357 1359 1360 1361 1363 1366 1368 1370 1373 1376 1379 1383 1387 1391 1395
1413 1412 1410 1408 1406 1404 1402 1399 1396 1394 1391 1387 1384 1381 1378 1375 1372 1369 1366 1363 1361 1359 1358 1356 1355 1355 1355 1355 1356 1357 1358 1359 1361 1364 1366 1368 1371 1373 1376 1379 1383 1387 1392
1408 1407 1406 1404 1402 1401 1399 1396 1394 1392 1389 1386 1383 1380 1377 1374 1371 1368 1365 1362 1359 1357 1356 1355 1354 1353 1353 1353 1354 1355 1356 1357 1359 1361 1363 1366 1368 1371 1373 1377 1381 1384 1389
1404 1403 1401 1400 1399 1397 1395 1394 1392 1390 1387 1385 1382 1379 1376 1373 1370 1367 1364 1361 1358 1356 1354 1353 1352 1352 1352 1352 1352 1353 1354 1355 1357 1359 1361 1363 1366 1369 1371 1375 1378 1382 1386
1399 1398 1397 1397 1395 1394 1392 1391 1389 1388 1386 1383 1381 1378 1375 1372 1369 1366 1363 1360 1357 1355 1353 1352 1351 1351 1351 1351 1351 1351 1352 1354 1355 1357 1359 1361 1363 1366 1369 1373 1376 1380 1384